This is the latest recevied weather packets stored in our database for station/object KD7AWQ. If no packets are shown the sender has not sent any weather packets the latest 10 day(s).
| Time | Temp. | Humidity | Pressure | Rain* | Wind** | Luminosity | Snow |
|---|---|---|---|---|---|---|---|
| 1788319713 | 25.56° C | 42% | 1188.2 hPa | 0 mm | - | 0 W/m² | - |
| 1788319407 | 25.56° C | 45% | 1188 hPa | 0 mm | - | 0 W/m² | - |
| 1788319107 | 25.56° C | 44% | 1187.7 hPa | 0 mm | - | 0 W/m² | - |
| 1788318804 | 25.56° C | 43% | 1187.7 hPa | 0 mm | - | 0 W/m² | - |
| 1788318499 | 26.11° C | 43% | 1187.7 hPa | 0 mm | - | 0 W/m² | - |
| 1788318193 | 26.11° C | 41% | 1187.7 hPa | 0 mm | - | 0 W/m² | - |
| 1788317893 | 26.67° C | 43% | 1187.3 hPa | 0 mm | - | 0 W/m² | - |
| 1788317588 | 26.67° C | 42% | 1187.2 hPa | 0 mm | - | 0 W/m² | - |
| 1788317282 | 26.67° C | 41% | 1187.2 hPa | 0 mm | - | 0 W/m² | - |
| 1788316978 | 26.67° C | 42% | 1187 hPa | 0 mm | - | 0 W/m² | - |
| 1788316674 | 26.67° C | 42% | 1187.3 hPa | 0 mm | - | 0 W/m² | - |
| 1788316369 | 26.67° C | 42% | 1186.7 hPa | 0 mm | - | 0 W/m² | - |
| 1788316068 | 26.67° C | 41% | 1186.9 hPa | 0 mm | - | 0 W/m² | - |
| 1788315764 | 26.67° C | 41% | 1186.7 hPa | 0 mm | - | 0 W/m² | - |
| 1788315459 | 26.67° C | 40% | 1186.7 hPa | 0 mm | - | 0 W/m² | - |
| 1788315159 | 26.67° C | 41% | 1186.7 hPa | 0 mm | - | 0 W/m² | - |
| 1788314855 | 26.67° C | 41% | 1186.6 hPa | 0 mm | - | 0 W/m² | - |
| 1788314551 | 26.67° C | 39% | 1186.7 hPa | 0 mm | - | 0 W/m² | - |
| 1788314246 | 27.22° C | 38% | 1186.3 hPa | 0 mm | - | 1 W/m² | - |
| 1788313943 | 27.22° C | 37% | 1186.6 hPa | 0 mm | - | 2 W/m² | - |
| 1788313638 | 27.22° C | 38% | 1186.6 hPa | 0 mm | - | 4 W/m² | - |
| 1788313335 | 27.78° C | 37% | 1186.5 hPa | 0 mm | - | 7 W/m² | - |
| 1788313032 | 27.78° C | 37% | 1186.5 hPa | 0 mm | - | 12 W/m² | - |
| 1788312728 | 27.78° C | 37% | 1186.4 hPa | 0 mm | - | 17 W/m² | - |
| 1788312423 | 27.78° C | 37% | 1186.5 hPa | 0 mm | - | 21 W/m² | - |
* Rain latest hour (hover to see other rain measurements)
** Current wind speed in m/s (hover to see current wind gust speed)